Header for Extended Forecast Station List Page

Search by: ID | Name | Date | Parm | Value | Avg | % Avg
Sort by: ID | Name | Date | Parm | Value | Avg | % Avg

Enter search or view all records.

Click on id for station plot
#IDNameDateParmValueAvg% Avg
0BULO3BULLY CREEK-BULLY CREEK DAM09-26-2022INFLOW (KAF)21177
1RIDI1WILLOW CREEK-RIRIE DAM09-26-2022INFLOW (KAF)1410133
2MYKO3MCKAY CREEK-NEAR PILOT ROCK09-26-2022DISCHARGE (KAF)1311113
3LWRI1LITTLE WOOD-LITTLE WOOD DAM09-26-2022INFLOW (KAF)81263
4BERO3MALHEUR-AGENCY VALLEY DAM09-26-2022INFLOW (KAF)101472
5DEDI1DEADWOOD-NEAR LOWMAN09-26-2022INFLOW (KAF)151792
6WRMO3MALHEUR-WARM SPRINGS DAM09-26-2022INFLOW (KAF)131873
7HOTI1BRUNEAU-NEAR HOT SPRINGS09-26-2022DISCHARGE (KAF)192190
8HWRI1BIG LOST-AT HOWELL RANCH NEAR CHILLY09-26-2022DISCHARGE (KAF)182283
9MAGI1BIG WOOD-MAGIC DAM09-26-2022INFLOW (KAF)172279
10ARDW1ENTIAT-NEAR ARDENVOIR09-26-2022DISCHARGE (KAF)152461
11GIBO3UMATILLA-NEAR GIBBON09-26-2022DISCHARGE (KAF)222685
12SATI1ST MARIES-NEAR SANTA09-26-2022DISCHARGE (KAF)142851
13STRM8ST. REGIS-NEAR ST. REGIS09-26-2022DISCHARGE (KAF)212971
14TNAW1TEANAWAY-BELOW FORKS09-26-2022DISCHARGE (KAF)123139
15BUDW1BUMPING-BUMPING LAKE DAM09-26-2022INFLOW (KAF)223466
16HALI1BIG WOOD-AT HAILEY09-26-2022DISCHARGE (KAF)344086
17MACI1BIG LOST-MACKAY RESERVOIR NEAR MACKAY09-26-2022INFLOW (KAF)334279
18PIHI1PORTNEUF-AT POCATELLO09-26-2022DISCHARGE (KAF)344479
19KADW1KACHESS-KACHESS DAM09-26-2022INFLOW (KAF)334573
20MILI1SNAKE-AT MILNER09-26-2022DISCHARGE (KAF)0480
21DLGM8CLARK FORK-AT DEER LODGE09-26-2022DISCHARGE (KAF)505099
22RCCM8ROCK CREEK-NEAR CLINTON09-26-2022DISCHARGE (KAF)5050101
23KEDW1YAKIMA-KEECHELUS LAKE09-26-2022INFLOW (KAF)435086
24WSRI1WEISER-NEAR WEISER09-26-2022DISCHARGE (KAF)315359
25PDTO3UMATILLA-AT PENDLETON09-26-2022DISCHARGE (KAF)485390
26MONO3NF JOHN DAY-AT MONUMENT09-26-2022DISCHARGE (KAF)446271
27RILW1TIETON-RIMROCK LAKE NEAR RIMROCK09-26-2022INFLOW (KAF)486574
28EASW1YAKIMA-AT EASTON09-26-2022DISCHARGE (KAF)536779
29ARAI1SF BOISE-ANDERSON RANCH DAM09-26-2022INFLOW (KAF)616791
30BIGI1BOISE-AT GLENWOOD BRIDGE09-26-2022DISCHARGE (KAF)337246
31UMAO3UMATILLA-NEAR UMATILLA09-26-2022DISCHARGE (KAF)8573116
32OWYO3OWYHEE-OWYHEE DAM09-26-2022INFLOW (KAF)547671
33LUCI1BOISE-LUCKY PEAK DAM09-26-2022INFLOW (KAF)717892
34TCHW1WALLA WALLA-NEAR TOUCHET09-26-2022DISCHARGE (KAF)8481104
35CSDI1NF PAYETTE-CASCADE DAM09-26-2022INFLOW (KAF)678876
36CLFW1NACHES-NEAR CLIFFDEL09-26-2022DISCHARGE (KAF)8510184
37PATW1METHOW-NEAR PATEROS09-26-2022DISCHARGE (KAF)8910486
38CLUW1CLE ELUM-CLE ELUM LAKE09-26-2022INFLOW (KAF)7910476
39TEAI1TETON-NEAR ST. ANTHONY09-26-2022DISCHARGE (KAF)8910882
40IPDI1HENRYS FORK-ISLAND PARK DAM09-26-2022INFLOW (KAF)10410995
41JLKW4SNAKE-JACKSON LAKE AT DAM09-26-2022INFLOW (KAF)9411184
42LAUW1KETTLE-AT LAURIER09-26-2022DISCHARGE (KAF)9311282
43CHEI1FALL RIVER-NEAR CHESTER09-26-2022DISCHARGE (KAF)11011993
44SERO3JOHN DAY-AT SERVICE CK09-26-2022DISCHARGE (KAF)9212275
45DRMM8CLARK FORK-NR DRUMMOND09-26-2022DISCHARGE (KAF)127126101
46BONM8BLACKFOOT-NEAR BONNER09-26-2022DISCHARGE (KAF)12213591
47NACW1NACHES-NEAR NACHES09-26-2022DISCHARGE (KAF)5415634
48WGCM8MF FLATHEAD-NEAR WEST GLACIER09-26-2022DISCHARGE (KAF)7417044
49HODO3HOOD-NEAR TUCKER BRIDGE09-26-2022DISCHARGE (KAF)204175116
50CHDW1CHELAN-LAKE CHELAN DAM09-26-2022INFLOW (KAF)13018072
51UNDW1WHITE SALMON-NEAR UNDERWOOD09-26-2022DISCHARGE (KAF)195195100
52FCFM8NF FLATHEAD-NEAR COLUMBIA FALLS09-26-2022DISCHARGE (KAF)14319773
53BITM8BITTERROOT-NEAR MISSOULA09-26-2022DISCHARGE (KAF)16920981
54PARI1BOISE-NEAR PARMA09-26-2022DISCHARGE (KAF)15921176
55HHWM8SF FLATHEAD-HUNGRY HORSE DAM09-26-2022INFLOW (KAF)14622465
56PITW1KLICKITAT-NEAR PITT09-26-2022DISCHARGE (KAF)21423392
57PRTI1PRIEST-NEAR PRIEST RIVER09-26-2022DISCHARGE (KAF)21323989
58TRYO3GRANDE RONDE-TROY09-26-2022DISCHARGE (KAF)16524069
59EMMI1PAYETTE-NEAR EMMETT09-26-2022DISCHARGE (KAF)22524691
60UMTW1YAKIMA-AT UMTANUM09-26-2022DISCHARGE (KAF)21127078
61TONW1OKANOGAN-NEAR TONASKET09-26-2022DISCHARGE (KAF)24128186
62PESW1WENATCHEE-AT PESHASTIN09-26-2022DISCHARGE (KAF)18029261
63ABOM8CLARK FORK-ABOVE MISSOULA09-26-2022DISCHARGE (KAF)31333095
64ANTI1HENRYS FORK-AT ST. ANTHONY09-26-2022DISCHARGE (KAF)30135086
65JKSW4SNAKE-NEAR JACKSON09-26-2022DISCHARGE (KAF)33937989
66PARW1YAKIMA-NEAR PARKER09-26-2022DISCHARGE (KAF)28939274
67REXI1HENRYS FORK-AT REXBURG09-26-2022DISCHARGE (KAF)38040295
68ALPW4SNAKE-NEAR ALPINE09-26-2022DISCHARGE (KAF)39145786
69DWRI1NF CLEARWATER-DWORSHAK DAM09-26-2022INFLOW (KAF)27046958
70BELM8CLARK FORK-BELOW MISSOULA09-26-2022DISCHARGE (KAF)48354888
71COEI1COEUR D ALENE-COEUR D ALENE LAKE09-26-2022INFLOW (KAF)27854851
72HEII1SNAKE-NEAR HEISE09-26-2022DISCHARGE (KAF)694560124
73BFTI1SNAKE-NEAR BLACKFOOT09-26-2022DISCHARGE (KAF)727591123
74ORFI1CLEARWATER-AT OROFINO09-26-2022DISCHARGE (KAF)44659475
75SNAI1SNAKE-AT BLACKFOOT09-26-2022DISCHARGE (KAF)706603117
76KIOW1YAKIMA-AT KIONA09-26-2022DISCHARGE (KAF)46562475
77PLDI1SF SNAKE-PALISADES DAM09-26-2022INFLOW (KAF)60768688
78SRGM8CLARK FORK-AT ST REGIS09-26-2022DISCHARGE (KAF)59671084
79SIFI1SNAKE-AB EAGLE ROCK NR IDAHO FALLS09-26-2022DISCHARGE (KAF)835724115
80SHYI1SNAKE-NEAR SHELLEY09-26-2022DISCHARGE (KAF)819744110
81SPOW1SPOKANE-AT SPOKANE09-26-2022DISCHARGE (KAF)43077056
82CFMM8FLATHEAD-AT COLUMBIA FALLS09-26-2022DISCHARGE (KAF)85893092
83LLKW1SPOKANE-AT LONGLAKE09-26-2022INFLOW (KAF)60494264
84LYDM8KOOTENAI-LIBBY DAM09-26-2022INFLOW (KAF)861101385
85WHBI1SALMON-AT WHITEBIRD09-26-2022DISCHARGE (KAF)939103791
86SPDI1CLEARWATER-AT SPALDING09-26-2022DISCHARGE (KAF)906107684
87AFRI1SNAKE-AMERICAN FALLS RESERVOIR09-26-2022INFLOW (KAF)13811190116
88MODO3DESCHUTES-AT MOODY NR BIGGS09-26-2022DISCHARGE (KAF)1058125884
89KERM8FLATHEAD-SELI’Š KSANKA QLISPE’ DAM09-26-2022INFLOW (KAF)966127176
90SWAI1SNAKE-BELOW SWAN FALLS09-26-2022DISCHARGE (KAF)1820185398
91LEOI1KOOTENAI-AT LEONIA09-26-2022DISCHARGE (KAF)26482644100
92WEII1SNAKE-AT WEISER09-26-2022DISCHARGE (KAF)2580270196
93BRNI1SNAKE-BROWNLEE DAM09-26-2022INFLOW (KAF)2745280298
94NOXM8CLARK FORK-NOXON RAPIDS DAM09-26-2022INFLOW (KAF)2266293477
95CABI1CLARK FORK-CABINET GORGE DAM09-26-2022INFLOW (KAF)2482327076
96ALFW1PEND OREILLE-ALBENI FALLS DAM09-26-2022INFLOW (KAF)2827361278
97ANAW1SNAKE-NEAR ANATONE09-26-2022DISCHARGE (KAF)3432413983
98LGDW1SNAKE-LOWER GRANITE DAM09-26-2022INFLOW (KAF)4339528882
99LGSW1SNAKE-LITTLE GOOSE DAM09-26-2022INFLOW (KAF)4335532881
100LMNW1SNAKE-LOWER MONUMENTAL DAM09-26-2022INFLOW (KAF)4356534282
101IHDW1SNAKE-ICE HARBOR DAM09-26-2022INFLOW (KAF)4356536381
102CIBW1COLUMBIA-AT INTL BOUNDARY09-26-2022DISCHARGE (KAF)179831984491
103GCDW1COLUMBIA-GRAND COULEE DAM09-26-2022INFLOW (KAF)187062036592
104CHJW1COLUMBIA-CHIEF JOSEPH DAM09-26-2022INFLOW (KAF)195802124392
105WELW1COLUMBIA-WELLS DAM09-26-2022INFLOW (KAF)199282182991
106RRHW1COLUMBIA-ROCKY REACH DAM09-26-2022INFLOW (KAF)202412224091
107WANW1COLUMBIA-WANAPUM DAM09-26-2022INFLOW (KAF)204432281990
108PRWW1COLUMBIA-PRIEST RAPIDS DAM09-26-2022INFLOW (KAF)204762288789
109MCDW1COLUMBIA-MCNARY DAM09-26-2022INFLOW (KAF)253102904087
110JDAO3COLUMBIA-JOHN DAY DAM09-26-2022INFLOW (KAF)262182993088
111TDAO3COLUMBIA-THE DALLES DAM09-26-2022INFLOW (KAF)267343066887
112BONO3COLUMBIA-BONNEVILLE DAM09-26-2022INFLOW (KAF)273083182486
113BFEI1KOOTENAI-AT BONNERS FERRY09-26-2022STAGE (FT)MMM
114HOPI1PEND OREILLE-PEND OREILLE LAKE NR HOPE09-26-2022LAKE ELEVATION (FT)MMM
115SJMI1ST JOE-AT ST MARIES09-26-2022STAGE (FT)MMM